sat.trackr.live / text

‹ back to catalog

STARLINK-36574

NORAD 67535 · 2026-014D

PAYLOAD ACTIVE UNKNOWN

§ Identity

Operator
Country
US
Launch date
2026-01-22
Launch site
AFWTR
Launch vehicle
Mass (kg)
RCS (m²)

Purposes: comms

External: N2YO · Heavens-Above · Gunter

§ Orbital elements

Epoch: 2026-09-19T10:02:52.940256Z

Period
93.91 min
Inclination
97.2849°
Eccentricity
0.0001483
Mean motion
15.33455398 rev/d
Perigee alt
464.5 km
Apogee alt
466.5 km
Semi-major
6,843.6 km
B*
5.5307e-4
RAAN
147.8164°
Arg perigee
95.4622°
Mean anomaly
264.6790°
Rev number
3,847

§ Raw data

STARLINK-365741 67535U 26014D   26262.41866829  .00017828  00000+0  55307-3 0  99992 67535  97.2849 147.8164 0001483  95.4622 264.6790 15.33455398 38474

JSON: /api/v1/satellites/67535 · /tle

For live sub-satellite position, see the globe view (requires WebGL).

§ Visibility from observer

Set your observer location to see the next 7 days of passes ≥ 10°. The values pass through the URL so the page stays shareable.

No JS? Fill the form by hand. The geolocation button needs JavaScript.